Location: Bucharest
(44.4268°N, 26.1025°E)
Time: 06:36:02
(UTC+03:00)

Oscar 19 - Pass Details

Date: 06 July 2022
Orbit: 773 x 790 km, 98.8° (Epoch: 14 August)

Event Time Altitude Azimuth Distance (km) Brightness Sun altitude
Rises 04:03:06 0° 23° (NNE) 3,260 15.5 -13.3°
Reaches altitude 10° 04:05:41 10° 34° (NE) 2,328 14.6 -13.0°
Maximum altitude 04:10:11 30° 96° (E) 1,351 12.2 -12.5°
Drops below altitude 10° 04:14:39 10° 157° (SSE) 2,315 12.8 -12.0°
Sets 04:17:13 0° 168° (SSE) 3,239 13.5 -11.7°
Enters shadow 04:17:18 - 168° (SSE) 3,274 13.5 -11.6°
